OPS 4682 DEB, 38361

Orbit data source: Space-Track

OPS 4682 DEB, 38361 is space debris in LEO originally from a launch on Sat, 03 Apr 1965 UTC launched from the Air Force Western Test Range (AFWTR). Debris objects in space refer to the collection of defunct objects orbiting the Earth. Examples of debris include non-operational satellites, rocket bodies, and fragments generated from explosions, collisions, or faulty payload assembly.

Loading next visibility...
Identifier
38361, 1965-027BN
Orbit
LEO
Country
Flag of USUS
Related business
Manufacturer
Unknown
Mission
Spacecraft
Bus & Motor
Unknown
Mass
Unknown
Launch date (UTC)
1965-04-03 (61 years ago)
Launch vehicle
Unknown
Launch site
Air Force Western Test Range (AFWTR)
Object type
Payload
Rocket body
Debris
Shape & HBR
Unknown shape, 0.1 m
Radar Cross Section
Small (<0.1 m²)

Expand to show TLE details & history
Last TLE update: 9 hours ago

TLE from 9 hours ago
0 OPS 4682 DEB
1 38361U 65027BN  25293.16915593 -.00000067  00000-0 -24687-3 0  9996
2 38361  90.2424   6.3612 0034848 172.3585 187.8075 13.00232869554756
Epoch: 2025-10-20T04:03Z
TLE epoch observation values (Epoch: 2025-10-20T04:03:35.072Z)
Latitude
-0.00006°
Longitude
-83.41026°
Altitude
1,290.44 km
Speed
7.199 km/s
True Right ascension
00h 25m 26s
True Declination
0° 00' 00"
Sunlit
Object was in full shadow at epoch
Visualization orbit readout
Latitude
Unknown
Longitude
Unknown
Altitude
Unknown
Speed
Unknown
Apparent Right ascension
Unknown
Apparent Declination
Unknown
Sunlit
N/A
Visualization observer readout
Local Sidereal Time
08:29:09
Azimuth
Unknown
Elevation
Unknown
Doppler factor
Unknown
Orbital elements
Apogee altitude
1,284.912 km
Perigee altitude
1,231.69 km
Semi-major axis
7,636.438 km
Eccentricity
0.00348
Inclination
90.2424°
RAAN
6.3612°
Arg. of periapsis
172.3585°
True anomaly
187.75349°
Mean anomaly
187.8075°
Eccentric anomaly
187.78047°
Mean motion
3.25242 °/min
Orbital period
110.69 mins
BSTAR
-0.00024687
Loading maneuver chart data...
Computing Atmospheric mass density...
Loading historical data...
Loading historical data...
Loading historical data...
Loading historical data...
Loading historical data...
Loading historical data...
Loading historical data...

Documentation

Showing up to 5 results
|